Simultaneous Nadir Overpasses (SNOs) Predictions

Prediction of SNOs between GOES-16 and NOAA-20 Satellite Orbit:

Table of predicted SNOs for the next 14.0 days since TLE Epoch: 2/6/2021
Index Date Time (GOES-16) GOES-16 Lat,Lon NOAA-20 Lat,Lon Distance(km) Time Diff (sec)
1 02/06/2021 06:10:53 0.01, -75.19 -0.74, -71.95 370.08 80
2 02/07/2021 18:32:49 -0.01, -75.19 -0.45, -77.25 234.23 80
3 02/08/2021 18:16:44 -0.01, -75.18 0.52, -72.71 281.84 80
4 02/10/2021 06:38:32 0.00, -75.17 0.62, -77.98 319.67 80
5 02/11/2021 06:17:08 0.00, -75.17 -0.41, -73.45 196.75 80
6 02/12/2021 18:39:04 0.00, -75.18 -0.77, -78.75 406.39 80
7 02/13/2021 18:22:59 0.00, -75.19 0.19, -74.21 110.90 80
8 02/15/2021 06:44:47 -0.00, -75.20 0.94, -79.48 488.47 80
9 02/16/2021 06:23:22 -0.00, -75.20 -0.08, -74.96 29.14 80
10 02/18/2021 18:26:33 0.01, -75.24 -0.12, -75.72 55.19 80
11 02/19/2021 18:10:29 0.01, -75.25 0.91, -71.19 462.82 80
